Location: Caltech
(34.1382°N, 118.1253°W)
Time: 21:51:45
(UTC-07:00)

Cosmos 2251 Rocket - Visible Passes

Search period start: 26 April 2018 00:00
Search period end: 06 May 2018 00:00
Orbit: 764 x 792 km, 74.0° (Epoch: 26 April)

Date Brightness Start Highest point End Pass type
(mag) Time Alt. Az. Time Alt. Az. Time Alt. Az.
26 Apr 6.5 21:06:12 10° WNW 21:07:42 11° W 21:09:12 10° WSW visible
27 Apr 6.1 20:30:18 10° NW 20:34:03 20° W 20:37:48 10° SW visible
28 Apr 5.4 19:55:36 10° NW 20:00:20 33° W 20:05:03 10° SSW visible
01 May 6.4 19:57:31 10° WNW 20:00:27 15° W 20:03:23 10° SW visible
